FW4373 Weather Reports


time (UTC)temp
C
wind
direction
speed
KPH
gust
KPH
rain 1hr
cm
rain 24hr
cm
rain mn
cm
humidity
%
barometer
mb
20260505124528 13 61 0.0 8.0 0.00 0.00 0.00 67 1013.3
20260505123026 14 0 3.2 9.7 0.00 0.00 0.00 66 1013.3
20260505121526 14 0 0.0 12.9 0.00 0.00 0.00 65 1013.3
20260505120029 15 66 4.8 12.9 0.00 0.00 0.00 66 1013.3
20260505114528 13 102 3.2 20.9 0.00 0.00 0.00 71 1013.4
20260505113039 13 0 3.2 16.1 0.00 0.00 0.00 71 1013.3
20260505111540 13 0 1.6 11.3 0.00 0.00 0.00 74 1013.5
20260505091526 12 73 1.6 11.3 0.00 0.00 0.00 79 1014.0
20260505090032 11 36 4.8 16.1 0.00 0.00 0.00 80 1013.8
20260505084530 11 64 3.2 12.9 0.00 0.00 0.00 80 1014.1
20260505083026 11 0 0.0 8.0 0.00 0.00 0.00 81 1014.1
20260505081530 11 69 4.8 14.5 0.00 0.00 0.00 82 1014.1
20260505080030 11 319 3.2 14.5 0.00 0.00 0.00 82 1014.1
20260505074526 11 0 3.2 11.3 0.00 0.00 0.00 85 1014.1
20260505073030 10 0 1.6 12.9 0.00 0.00 0.00 86 1014.1
20260505071529 10 69 1.6 11.3 0.00 0.00 0.00 86 1014.3
20260505070027 10 33 0.0 8.0 0.00 0.00 0.00 87 1014.3
20260505064527 10 34 1.6 12.9 0.00 0.00 0.00 87 1014.3
20260505063025 10 0 0.0 8.0 0.00 0.00 0.00 89 1014.2
20260505061529 10 0 0.0 4.8 0.00 0.00 0.00 90 1014.1
20260505060026 9 0 0.0 4.8 0.00 0.00 0.00 91 1014.1
20260505054541 9 0 0.0 1.6 0.00 0.00 0.00 91 1014.1
20260505053027 8 0 0.0 4.8 0.00 0.00 0.00 91 1014.1
20260505051528 8 0 0.0 4.8 0.00 0.00 0.00 91 1014.3
20260505041525 8 0 0.0 0.0 0.00 0.00 0.00 90 1014.4
20260505040038 9 0 0.0 4.8 0.00 0.00 0.00 90 1014.4
20260505034536 9 0 0.0 0.0 0.00 0.00 0.00 90 1014.4
20260505033026 9 0 0.0 0.0 0.00 0.00 0.00 90 1014.5
20260505031527 10 0 0.0 0.0 0.00 0.00 0.00 90 1014.5
20260505030028 10 0 0.0 0.0 0.00 0.00 0.00 90 1014.3
20260505024528 10 0 0.0 0.0 0.00 0.00 0.00 90 1014.5
20260505023028 10 0 0.0 0.0 0.00 0.00 0.00 89 1014.4
20260505021529 10 0 0.0 0.0 0.00 0.00 0.00 90 1014.5
20260505020037 10 0 0.0 0.0 0.00 0.00 0.00 89 1014.6
20260505014525 10 0 0.0 0.0 0.00 0.00 0.00 88 1014.5
20260505013027 10 0 0.0 0.0 0.00 0.00 0.00 87 1014.7
20260505011528 11 0 0.0 0.0 0.00 0.00 0.00 86 1014.9
20260505010028 11 0 0.0 3.2 0.00 0.00 0.00 85 1015.0
20260505004528 11 0 0.0 1.6 0.00 0.00 0.00 85 1015.1
20260505003027 11 0 0.0 1.6 0.00 0.00 0.00 85 1015.2
20260505001528 11 0 0.0 4.8 0.00 0.00 0.00 85 1015.3
20260505000042 11 0 0.0 8.0 0.00 0.00 0.00 84 1015.3
20260504234528 12 0 0.0 8.0 0.00 0.00 0.00 84 1015.4
20260504233026 12 0 0.0 8.0 0.00 0.00 0.00 83 1015.4
20260504231525 12 0 0.0 0.0 0.00 0.00 0.00 84 1015.3
20260504230028 12 0 0.0 3.2 0.00 0.00 0.00 83 1015.4
20260504224528 12 0 0.0 6.4 0.00 0.00 0.00 83 1015.4
20260504223028 12 0 0.0 8.0 0.00 0.00 0.00 82 1015.4
20260504221528 12 0 0.0 1.6 0.00 0.00 0.00 82 1015.5
20260504220042 12 0 0.0 6.4 0.00 0.00 0.00 82 1015.6
20260504214528 12 50 0.0 6.4 0.00 0.00 0.00 82 1015.6
20260504213031 12 0 0.0 6.4 0.00 0.00 0.00 82 1015.6
20260504211537 12 0 0.0 8.0 0.00 0.00 0.00 82 1015.6
20260504210026 13 0 0.0 8.0 0.00 0.00 0.00 82 1015.6
20260504204536 13 0 0.0 6.4 0.00 0.00 0.00 82 1015.6
20260504203028 13 0 0.0 6.4 0.00 0.00 0.00 82 1015.6
20260504201528 13 0 0.0 3.2 0.00 0.00 0.00 82 1015.4
20260504200025 13 0 0.0 4.8 0.00 0.00 0.00 81 1015.4
20260504194528 13 0 0.0 6.4 0.00 0.00 0.00 81 1015.3
20260504193030 13 0 0.0 8.0 0.00 0.00 0.00 80 1015.2
20260504191529 13 0 0.0 8.0 0.00 0.00 0.00 80 1015.1
20260504190030 13 0 1.6 8.0 0.00 0.00 0.00 79 1015.1
20260504184527 13 67 0.0 8.0 0.00 0.00 0.00 79 1015.1
20260504183030 13 0 0.0 4.8 0.00 0.00 0.00 79 1015.0
20260504181531 13 0 0.0 11.3 0.00 0.00 0.00 79 1014.8
20260504180028 14 22 0.0 9.7 0.00 0.00 0.00 79 1014.9
20260504174526 14 81 0.0 8.0 0.00 0.00 0.00 78 1014.7
20260504173030 14 0 1.6 14.5 0.00 0.00 0.00 77 1014.7
20260504171528 15 0 0.0 11.3 0.00 0.00 0.00 77 1014.7